Change the Weather History Date:

Tuesday, November 13, 2012

  Actual Average Record
Temperature  
Mean Temperature 33 °F 42 °F  
Max Temperature 38 °F 49 °F 67 °F (1955)
Min Temperature 27 °F 35 °F 12 °F (1986)
Degree Days  
Heating Degree Days 32 23  
Month to date heating degree days 309 273  
Since 1 July heating degree days 927 865  
Cooling Degree Days 0 0  
Month to date cooling degree days 0 0  
Year to date cooling degree days 1051 675  
Moisture  
Dew Point 21 °F    
Average Humidity 67    
Maximum Humidity 81    
Minimum Humidity 52    
Precipitation  
Precipitation T in 0.10 in 0.60 in (2000)
Month to date precipitation 0.31 1.42  
Year to date precipitation 25.63 32.16  
Sea Level Pressure  
Sea Level Pressure 30.46 in    
Wind  
Wind Speed 4 mph (WNW)    
Max Wind Speed 16 mph    
Max Gust Speed 23 mph    
Visibility 10 miles    
Events      
T = Trace of Precipitation, MM = Missing Value Source: NWS Daily Summary

Daily Weather History Graph

Daily Weather History Graph

Search for Another Location

Airport or City:

Trip Planner

Search our weather history database for the weather conditions in past years. The results will help you decide how hot, cold, wet, or windy it might be!

Date:

Astronomy

Nov. 13, 2012 Rise Set
Actual Time 7:30 AM EST 5:21 PM EST
Civil Twilight 7:00 AM EST 5:51 PM EST
Nautical Twilight 6:26 AM EST 6:25 PM EST
Astronomical Twilight 5:53 AM EST 6:58 PM EST
Moon 7:08 AM EST (11/13) 5:13 PM EST (11/13)
Length of Visible Light 10h 51m
Length of Day
9h 51m
Waning Crescent, 0% of the Moon is Illuminated
Nov 13
Waning Crescent
Nov 13
New
Nov 20
First Quarter
Nov 28
Full
Dec 6
Last Quarter

Hourly Weather History & Observations

Time (EST) Temp. Windchill Dew Point Humidity Pressure Visibility Wind Dir Wind Speed Gust Speed Precip Events Conditions
12:53 AM 32.0 °F 24.2 °F 21.0 °F 64% 30.32 in 10.0 mi WNW 9.2 mph - 0.00 in   Overcast
1:53 AM 32.0 °F 24.8 °F 21.9 °F 66% 30.32 in 9.0 mi West 8.1 mph - 0.00 in   Overcast
2:53 AM 32.0 °F 24.8 °F 19.9 °F 61% 30.34 in 10.0 mi WNW 8.1 mph - N/A   Overcast
3:53 AM 32.0 °F 24.8 °F 19.0 °F 59% 30.35 in 10.0 mi WNW 8.1 mph - N/A   Overcast
4:53 AM 32.0 °F 27.5 °F 19.9 °F 61% 30.36 in 10.0 mi West 4.6 mph - N/A   Overcast
5:53 AM 32.0 °F 27.5 °F 21.0 °F 64% 30.39 in 10.0 mi West 4.6 mph - N/A   Overcast
6:53 AM 30.9 °F 25.2 °F 19.9 °F 64% 30.41 in 10.0 mi West 5.8 mph - N/A   Overcast
7:53 AM 30.9 °F 23.5 °F 19.9 °F 64% 30.44 in 10.0 mi WNW 8.1 mph - N/A   Mostly Cloudy
8:53 AM 32.0 °F 28.7 °F 19.9 °F 61% 30.46 in 10.0 mi West 3.5 mph - N/A   Mostly Cloudy
9:53 AM 32.0 °F 26.4 °F 19.9 °F 61% 30.48 in 10.0 mi WNW 5.8 mph - N/A   Overcast
10:53 AM 33.1 °F 30.0 °F 21.0 °F 61% 30.51 in 10.0 mi NW 3.5 mph - N/A   Overcast
11:53 AM 34.0 °F - 21.0 °F 59% 30.50 in 10.0 mi Calm Calm - N/A   Overcast
12:53 PM 34.0 °F 29.8 °F 21.0 °F 59% 30.49 in 10.0 mi NW 4.6 mph - N/A   Overcast
1:53 PM 35.1 °F - 21.9 °F 59% 30.48 in 10.0 mi Calm Calm - N/A   Overcast
2:53 PM 36.0 °F - 21.0 °F 55% 30.48 in 10.0 mi Calm Calm - N/A   Mostly Cloudy
3:53 PM 37.9 °F 35.5 °F 21.0 °F 51% 30.49 in 10.0 mi Variable 3.5 mph - N/A   Scattered Clouds
4:53 PM 36.0 °F 33.3 °F 21.9 °F 57% 30.49 in 10.0 mi East 3.5 mph - N/A   Partly Cloudy
5:53 PM 33.1 °F - 21.9 °F 64% 30.50 in 10.0 mi Calm Calm - N/A   Clear
6:53 PM 30.0 °F - 21.0 °F 69% 30.52 in 10.0 mi Calm Calm - N/A   Clear
7:53 PM 30.0 °F - 21.9 °F 72% 30.53 in 10.0 mi Calm Calm - N/A   Clear
8:53 PM 28.9 °F - 21.0 °F 72% 30.55 in 10.0 mi Calm Calm - N/A   Clear
9:53 PM 27.0 °F - 21.0 °F 78% 30.55 in 10.0 mi Calm Calm - N/A   Clear
10:53 PM 28.0 °F - 21.0 °F 75% 30.55 in 10.0 mi Calm Calm - N/A   Clear
11:53 PM 27.0 °F 23.0 °F 19.9 °F 75% 30.55 in 10.0 mi South 3.5 mph - N/A   Clear